When you browse on this site, cookies collect data to enhance your experience and personalize the content and advertising you see.
Visit our Privacy Policy to learn more. By continuing to use the site, you agree to this use of cookies and data.
  • In Hungary
  • List of Countries
  • For 7 days
  • Water Temperature
  • Weather Map
  • News
  • Weather Widgets
  • user-avatar
    Login

    Hourly Weather Shirokiy Brod

    Today, 26 February, Wednesday

    Time Temperature Precipitation Wind Pressure Humidity
    00:00 -2°C° 0.9 mm 6 mps 732 mmHg 98%
    01:00 -2°C° 0.9 mm 6 mps 731 mmHg 98%
    02:00 -1°C° 1 mm 5 mps 730 mmHg 98%
    03:00 -1°C° 1 mm 4 mps 730 mmHg 98%
    04:00 +1°C° 1 mm 2 mps 729 mmHg 99%
    05:00 +1°C° 0.9 mm 2 mps 729 mmHg 99%
    06:00 0°C° 0.9 mm 3 mps 728 mmHg 98%
    07:00 -1°C° 0.9 mm 3 mps 728 mmHg 98%
    08:00 -2°C° 0.3 mm 4 mps 728 mmHg 98%
    09:00 -2°C° 0.3 mm 5 mps 728 mmHg 97%
    10:00 -3°C° 0.3 mm 7 mps 728 mmHg 96%
    11:00 -3°C° 0.2 mm 7 mps 728 mmHg 95%
    12:00 -4°C° 0.2 mm 8 mps 729 mmHg 94%
    13:00 -4°C° 0.2 mm 8 mps 729 mmHg 93%
    14:00 -5°C° 0.2 mm 9 mps 730 mmHg 92%
    15:00 -5°C° 0.2 mm 9 mps 731 mmHg 92%
    16:00 -5°C° 0.2 mm 10 mps 732 mmHg 91%
    17:00 -7°C° 0.1 mm 10 mps 733 mmHg 91%
    18:00 -6°C° 0.1 mm 9 mps 734 mmHg 90%
    19:00 -8°C° 0.1 mm 9 mps 735 mmHg 90%
    20:00 -8°C° 0 mm 9 mps 736 mmHg 89%
    21:00 -8°C° 0 mm 8 mps 737 mmHg 89%
    22:00 -8°C° 0 mm 8 mps 738 mmHg 88%
    23:00 -9°C° 0 mm 7 mps 739 mmHg 89%

    Tomorrow, 27 February, Thursday

    Time Temperature Precipitation Wind Pressure Humidity
    00:00 -9°C° 0 mm 6 mps 740 mmHg 91%
    01:00 -10°C° 0 mm 5 mps 741 mmHg 92%
    02:00 -10°C° 0 mm 4 mps 742 mmHg 93%
    03:00 -11°C° 0 mm 4 mps 743 mmHg 95%
    04:00 -12°C° 0 mm 3 mps 744 mmHg 96%
    05:00 -12°C° 0 mm 2 mps 744 mmHg 96%
    06:00 -13°C° 0 mm 2 mps 744 mmHg 95%
    07:00 -13°C° 0 mm 2 mps 745 mmHg 95%
    08:00 -12°C° 0 mm 2 mps 745 mmHg 95%
    09:00 -10°C° 0 mm 3 mps 745 mmHg 94%
    10:00 -8°C° 0 mm 3 mps 746 mmHg 94%
    11:00 -7°C° 0.3 mm 4 mps 746 mmHg 95%
    12:00 -4°C° 0.3 mm 4 mps 746 mmHg 97%
    13:00 -2°C° 0.3 mm 5 mps 746 mmHg 98%
    14:00 -2°C° 0 mm 5 mps 746 mmHg 96%
    15:00 -1°C° 0 mm 5 mps 746 mmHg 95%
    16:00 -2°C° 0 mm 6 mps 747 mmHg 93%
    17:00 -2°C° 0 mm 5 mps 747 mmHg 91%
    18:00 -2°C° 0 mm 5 mps 747 mmHg 89%
    19:00 -3°C° 0 mm 4 mps 747 mmHg 88%
    20:00 -3°C° 0 mm 4 mps 747 mmHg 86%
    21:00 -4°C° 0 mm 5 mps 747 mmHg 84%
    22:00 -4°C° 0 mm 5 mps 748 mmHg 82%
    23:00 -4°C° 0 mm 5 mps 747 mmHg 81%

    Day after tomorrow, 28 February, Friday

    Time Temperature Precipitation Wind Pressure Humidity
    00:00 -4°C° 0 mm 5 mps 747 mmHg 80%
    01:00 -4°C° 0 mm 4 mps 747 mmHg 79%
    02:00 -4°C° 0 mm 4 mps 747 mmHg 79%
    03:00 -4°C° 0 mm 4 mps 747 mmHg 79%
    04:00 -5°C° 0 mm 4 mps 747 mmHg 79%
    05:00 -5°C° 0 mm 4 mps 747 mmHg 79%
    06:00 -5°C° 0 mm 4 mps 747 mmHg 79%
    07:00 -5°C° 0 mm 4 mps 747 mmHg 79%
    08:00 -5°C° 0 mm 5 mps 747 mmHg 79%
    09:00 -4°C° 0 mm 5 mps 747 mmHg 78%
    10:00 -4°C° 0 mm 5 mps 747 mmHg 78%
    11:00 -2°C° 0 mm 5 mps 748 mmHg 79%
    12:00 -3°C° 0 mm 6 mps 748 mmHg 79%
    13:00 -2°C° 0 mm 6 mps 748 mmHg 80%
    14:00 -2°C° 0 mm 6 mps 748 mmHg 80%
    15:00 -2°C° 0 mm 6 mps 748 mmHg 81%
    16:00 -1°C° 0 mm 5 mps 748 mmHg 81%
    17:00 -1°C° 0 mm 5 mps 748 mmHg 82%
    18:00 -2°C° 0 mm 5 mps 747 mmHg 83%
    19:00 -2°C° 0 mm 5 mps 747 mmHg 84%
    20:00 -4°C° 0 mm 5 mps 747 mmHg 83%
    21:00 -4°C° 0 mm 5 mps 747 mmHg 82%
    22:00 -5°C° 0 mm 5 mps 747 mmHg 82%
    23:00 -5°C° 0 mm 5 mps 746 mmHg 79%

    29 February, Saturday

    Time Temperature Precipitation Wind Pressure Humidity
    00:00 -5°C° 0 mm 5 mps 746 mmHg 77%
    01:00 -5°C° 0 mm 5 mps 746 mmHg 75%
    02:00 -6°C° 0 mm 5 mps 745 mmHg 75%
    03:00 -6°C° 0 mm 6 mps 745 mmHg 74%
    04:00 -6°C° 0 mm 6 mps 745 mmHg 74%
    05:00 -6°C° 0 mm 6 mps 744 mmHg 74%
    06:00 -6°C° 0 mm 6 mps 744 mmHg 74%
    07:00 -7°C° 0 mm 7 mps 743 mmHg 75%
    08:00 -7°C° 0 mm 7 mps 743 mmHg 76%
    09:00 -7°C° 0 mm 7 mps 742 mmHg 77%
    10:00 -6°C° 0 mm 7 mps 742 mmHg 77%
    11:00 -6°C° 0 mm 7 mps 742 mmHg 80%
    12:00 -4°C° 0 mm 7 mps 741 mmHg 83%
    13:00 -4°C° 0 mm 7 mps 741 mmHg 86%
    14:00 -3°C° 0 mm 7 mps 741 mmHg 87%
    15:00 -3°C° 0 mm 6 mps 741 mmHg 87%
    16:00 -3°C° 0 mm 6 mps 741 mmHg 88%
    17:00 -3°C° 0 mm 6 mps 741 mmHg 89%
    18:00 -2°C° 0 mm 5 mps 741 mmHg 91%
    19:00 -2°C° 0 mm 5 mps 741 mmHg 92%
    20:00 -2°C° 0 mm 4 mps 741 mmHg 93%
    21:00 -1°C° 0 mm 3 mps 742 mmHg 93%
    22:00 -1°C° 0 mm 3 mps 742 mmHg 94%
    23:00 -1°C° 0 mm 3 mps 742 mmHg 95%

    1 March, Sunday

    Time Temperature Precipitation Wind Pressure Humidity
    00:00 -1°C° 0 mm 2 mps 742 mmHg 96%
    01:00 -1°C° 0 mm 2 mps 742 mmHg 96%
    02:00 -1°C° 0 mm 2 mps 743 mmHg 97%
    03:00 -1°C° 0 mm 2 mps 743 mmHg 97%
    04:00 +1°C° 0 mm 1 mps 743 mmHg 97%
    05:00 +1°C° 0 mm 1 mps 743 mmHg 97%
    06:00 +1°C° 0 mm 1 mps 743 mmHg 97%
    07:00 +1°C° 0 mm 1 mps 744 mmHg 97%
    08:00 +1°C° 0 mm 1 mps 744 mmHg 98%
    09:00 0°C° 0 mm 0 mps 744 mmHg 99%
    10:00 +1°C° 0 mm 0 mps 744 mmHg 100%
    11:00 +1°C° 0 mm 0 mps 745 mmHg 99%
    12:00 +1°C° 0 mm 0 mps 745 mmHg 99%
    13:00 +1°C° 0 mm 0 mps 745 mmHg 99%
    14:00 +1°C° 0 mm 0 mps 745 mmHg 99%
    15:00 +2°C° 0 mm 1 mps 745 mmHg 100%
    16:00 +2°C° 0 mm 1 mps 744 mmHg 100%
    17:00 +2°C° 0 mm 1 mps 745 mmHg 99%
    18:00 +2°C° 0 mm 1 mps 745 mmHg 98%
    19:00 +2°C° 0 mm 1 mps 745 mmHg 98%
    20:00 -1°C° 0 mm 2 mps 745 mmHg 97%
    21:00 -1°C° 0 mm 2 mps 745 mmHg 97%
    22:00 -1°C° 0 mm 2 mps 745 mmHg 96%
    23:00 -1°C° 0 mm 2 mps 745 mmHg 96%

    2 March, Monday

    Time Temperature Precipitation Wind Pressure Humidity
    00:00 -2°C° 0 mm 2 mps 745 mmHg 95%
    01:00 -2°C° 0 mm 2 mps 745 mmHg 95%
    02:00 -2°C° 0 mm 2 mps 745 mmHg 94%
    03:00 -2°C° 0 mm 2 mps 745 mmHg 93%
    04:00 -3°C° 0 mm 2 mps 745 mmHg 93%
    05:00 -2°C° 0 mm 2 mps 746 mmHg 93%
    06:00 -2°C° 0 mm 2 mps 746 mmHg 92%
    07:00 -2°C° 0 mm 2 mps 746 mmHg 92%
    08:00 -2°C° 0 mm 2 mps 746 mmHg 93%
    09:00 -1°C° 0 mm 2 mps 747 mmHg 93%
    10:00 -1°C° 0 mm 2 mps 747 mmHg 94%
    11:00 +1°C° 0 mm 1 mps 747 mmHg 96%
    12:00 +2°C° 0 mm 1 mps 747 mmHg 98%
    13:00 +2°C° 0 mm 1 mps 747 mmHg 99%
    14:00 +2°C° 0 mm 1 mps 747 mmHg 99%
    15:00 +2°C° 0 mm 1 mps 747 mmHg 99%
    16:00 +2°C° 0 mm 1 mps 747 mmHg 99%
    17:00 +1°C° 0 mm 1 mps 748 mmHg 97%
    18:00 +1°C° 0 mm 1 mps 748 mmHg 96%
    19:00 0°C° 0 mm 1 mps 748 mmHg 94%
    20:00 -1°C° 0 mm 1 mps 748 mmHg 93%
    21:00 -3°C° 0 mm 2 mps 748 mmHg 92%
    22:00 -4°C° 0 mm 2 mps 748 mmHg 92%
    23:00 -4°C° 0 mm 2 mps 748 mmHg 91%
    Show more